{"data":{"norad_id":52897,"intl_designator":"2022-065D","name":"STEP CUBE LAB-II","alt_names":[],"object_type":"PAYLOAD","status":"ACTIVE","operator":null,"country":"SKOR","launch_date":"2022-06-21","launch_site_code":"NSC","launch_vehicle":null,"mission":null,"orbit_class":"UNKNOWN","rcs_meters":null,"size_class":null,"mass_kg":null,"dimensions":null,"purposes":[],"wikipedia_slug":null,"has_3d_model":false,"image_url":null,"decayed_at":null,"tle_current":{"epoch":"2026-05-25T03:50:42.683136Z","epoch_age_seconds":57083,"freshness":"FRESH","line1":"1 52897U 22065D   26145.16021624  .00000485  00000+0  10342-3 0  9995","line2":"2 52897  98.2200 289.1372 0009932  96.6283 263.6049 14.63258771208131","mean_motion":14.63258771,"eccentricity":0.0009932,"inclination_deg":98.22,"raan_deg":289.1372,"arg_perigee_deg":96.6283,"mean_anomaly_deg":263.6049,"bstar":0.00010342,"rev_number":20813,"period_min":98.410481354292,"perigee_km":675.65845143763,"apogee_km":689.68404093786,"semimajor_km":7060.8082461877,"source":"CELESTRAK","updated_at":"2026-05-25T13:37:57.953565Z"}}}